,,Stat6,,Stat2,,Stat8,,Stat9,,Stat10,,Wind1,,Wind1,
time,status,PA1M_AVG,status,PR1M_SUM,status,RH1M_AVG,status,SR1M_AVG,status,TA1M_AVG,status,W1dAve1m,status,W1sAve1m,
2006-08-14, 14:48:00,VALID,914.924,VALID,0,VALID,76.5343,VALID,648.233,VALID,25.7273,VALID,104,VALID,0.850675,
2006-08-14, 14:49:00,VALID,914.92,VALID,0,VALID,78.3169,VALID,655.681,VALID,25.8686,VALID,250,VALID,1.09096,
2006-08-14, 14:50:00,VALID,914.925,VALID,0,VALID,79.7627,VALID,772.254,VALID,25.9836,VALID,254,VALID,1.40527,
2006-08-14, 14:51:00,VALID,914.942,VALID,0,VALID,78.6691,VALID,791.392,VALID,26.268,VALID,258,VALID,0.996094,
2006-08-14, 14:52:00,VALID,914.934,VALID,0,VALID,77.9659,VALID,594.516,VALID,26.9687,VALID,207,VALID,0.871366,
2006-08-14, 14:53:00,VALID,914.917,VALID,0,VALID,71.6028,VALID,599.355,VALID,28.0588,VALID,233,VALID,1.10369,
2006-08-14, 14:54:00,VALID,914.923,VALID,0,VALID,69.4652,VALID,597.284,VALID,27.7675,VALID,240,VALID,0.764717,
2006-08-14, 14:55:00,VALID,914.936,VALID,0,VALID,70.4622,VALID,815.929,VALID,27.4528,VALID,229,VALID,0.829215,
2006-08-14, 14:56:01,VALID,914.904,VALID,0,VALID,71.3268,VALID,749.772,VALID,27.3196,VALID,201,VALID,0.53125,
2006-08-14, 14:57:01,VALID,914.87,VALID,0,VALID,72.5171,VALID,779.182,VALID,27.3543,VALID,233,VALID,0.84809,
2006-08-14, 14:58:01,VALID,914.856,VALID,0,VALID,72.4039,VALID,739.889,VALID,27.4068,VALID,237,VALID,0.950648,
2006-08-14, 14:59:00,VALID,914.842,VALID,0,VALID,70.6351,VALID,617.525,VALID,27.2968,VALID,172,VALID,0.837788,
2006-08-14, 15:00:00,VALID,914.816,VALID,0,VALID,71.3752,VALID,682.494,VALID,26.9848,VALID,136,VALID,0.569767,
2006-08-14, 15:01:00,VALID,914.812,VALID,0,VALID,70.7635,VALID,347.988,VALID,26.9108,VALID,227,VALID,0.565163,
2006-08-14, 15:02:00,VALID,914.797,VALID,0,VALID,72.1928,VALID,409.815,VALID,26.9144,VALID,294,VALID,0.859375,
2006-08-14, 15:03:00,VALID,914.764,VALID,0,VALID,72.0262,VALID,336.985,VALID,26.8853,VALID,294,VALID,1.06536,
2006-08-14, 15:04:00,VALID,914.787,VALID,0,VALID,73.4199,VALID,258.601,VALID,26.7922,VALID,268,VALID,1.04743,
2006-08-14, 15:05:00,VALID,914.765,VALID,0,VALID,73.1274,VALID,237.477,VALID,26.811,VALID,200,VALID,0.814977,
2006-08-14, 15:06:00,VALID,914.749,VALID,0,VALID,73.3754,VALID,210.325,VALID,26.6432,VALID,245,VALID,1.17257,
2006-08-14, 15:07:00,VALID,914.749,VALID,0,VALID,74.5631,VALID,310.834,VALID,26.352,VALID,260,VALID,1.09996,
2006-08-14, 15:08:00,VALID,914.732,VALID,0,VALID,74.6801,VALID,288.097,VALID,26.2457,VALID,279,VALID,1.13243,
2006-08-14, 15:09:00,VALID,914.724,VALID,0,VALID,74.4194,VALID,266.327,VALID,26.0709,VALID,151,VALID,0.578697,
2006-08-14, 15:10:00,VALID,914.714,VALID,0,VALID,74.9395,VALID,262.727,VALID,25.7125,VALID,167,VALID,0.4375,
2006-08-14, 15:11:00,VALID,914.713,VALID,0,VALID,76.0839,VALID,267.142,VALID,25.4405,VALID,250,VALID,0.869531,
2006-08-14, 15:12:00,VALID,914.701,VALID,0,VALID,77.2576,VALID,587.418,VALID,25.3184,VALID,206,VALID,0.965732,
2006-08-14, 15:13:00,VALID,914.708,VALID,0,VALID,77.7561,VALID,395.382,VALID,25.4285,VALID,258,VALID,0.720788,
2006-08-14, 15:14:00,VALID,914.69,VALID,0,VALID,77.4115,VALID,429.174,VALID,25.6059,VALID,273,VALID,0.74657,
2006-08-14, 15:15:00,VALID,914.685,VALID,0,VALID,76.8863,VALID,380.744,VALID,25.6737,VALID,346,VALID,0.584201,
2006-08-14, 15:16:00,VALID,914.65,VALID,0,VALID,76.4921,VALID,345.067,VALID,25.7642,VALID,341,VALID,0.730015,
2006-08-14, 15:17:00,VALID,914.627,VALID,0,VALID,75.9084,VALID,289.795,VALID,25.7293,VALID,102,VALID,0.854611,
2006-08-14, 15:18:00,VALID,914.602,VALID,0,VALID,75.8868,VALID,185.312,VALID,25.4512,VALID,73,VALID,0.705903,
2006-08-14, 15:19:00,VALID,914.578,VALID,0,VALID,76.9524,VALID,164.086,VALID,25.3352,VALID,79,VALID,0.362179,
2006-08-14, 15:20:00,VALID,914.556,VALID,0,VALID,76.9397,VALID,169.333,VALID,25.2515,VALID,185,VALID,0.831364,
2006-08-14, 15:21:00,VALID,914.543,VALID,0,VALID,78.1426,VALID,177.891,VALID,24.9698,VALID,276,VALID,1.95374,
2006-08-14, 15:22:00,VALID,914.538,VALID,0,VALID,79.9178,VALID,186.161,VALID,24.7822,VALID,285,VALID,1.18277,
2006-08-14, 15:23:00,VALID,914.554,VALID,0,VALID,80.4137,VALID,221.787,VALID,24.8151,VALID,272,VALID,1.35324,
2006-08-14, 15:24:00,VALID,914.572,VALID,0,VALID,79.7767,VALID,214.994,VALID,24.7954,VALID,283,VALID,1.6488,
2006-08-14, 15:25:00,VALID,914.59,VALID,0,VALID,80.5409,VALID,203.413,VALID,24.6921,VALID,271,VALID,1.98624,
2006-08-14, 15:26:00,VALID,914.61,VALID,0,VALID,80.4074,VALID,210.036,VALID,24.4117,VALID,244,VALID,2.12556,
2006-08-14, 15:27:00,VALID,914.615,VALID,0,VALID,81.6637,VALID,298.71,VALID,24.2427,VALID,247,VALID,1.6559,
2006-08-14, 15:28:00,VALID,914.588,VALID,0,VALID,81.3051,VALID,478.876,VALID,24.1975,VALID,223,VALID,1.18807,
2006-08-14, 15:29:00,VALID,914.6,VALID,0,VALID,82.9671,VALID,486.62,VALID,24.2459,VALID,258,VALID,1.65352,
2006-08-14, 15:30:00,VALID,914.616,VALID,0,VALID,82.3796,VALID,475.395,VALID,24.4755,VALID,276,VALID,0.525981,
2006-08-14, 15:31:00,VALID,914.67,VALID,0,VALID,80.7291,VALID,387.367,VALID,24.7439,VALID,258,VALID,0.171543,
2006-08-14, 15:32:00,VALID,914.693,VALID,0,VALID,79.1485,VALID,384.667,VALID,24.9348,VALID,188,VALID,0.35665,
2006-08-14, 15:33:00,VALID,914.698,VALID,0,VALID,79.0391,VALID,274.784,VALID,25.0124,VALID,279,VALID,1.12054,
2006-08-14, 15:34:00,VALID,914.684,VALID,0,VALID,79.8199,VALID,218.458,VALID,25.0796,VALID,266,VALID,1.54021,
2006-08-14, 15:35:00,VALID,914.685,VALID,0,VALID,79.0277,VALID,201.885,VALID,25.0282,VALID,243,VALID,1.25076,
2006-08-14, 15:36:00,VALID,914.669,VALID,0,VALID,79.7385,VALID,205.876,VALID,25.0095,VALID,273,VALID,1.25454,
2006-08-14, 15:37:00,VALID,914.655,VALID,0,VALID,79.4231,VALID,210.359,VALID,25.035,VALID,262,VALID,0.955273,
2006-08-14, 15:38:00,VALID,914.659,VALID,0,VALID,78.9018,VALID,196.298,VALID,25.0156,VALID,260,VALID,0.87517,
2006-08-14, 15:39:00,VALID,914.633,VALID,0,VALID,78.8166,VALID,186.025,VALID,24.9701,VALID,258,VALID,0.974306,
2006-08-14, 15:40:00,VALID,914.622,VALID,0,VALID,79.324,VALID,188.131,VALID,24.9264,VALID,266,VALID,1.4194,
2006-08-14, 15:41:00,VALID,914.596,VALID,0,VALID,79.5618,VALID,214.145,VALID,24.8509,VALID,254,VALID,1.36886,
2006-08-14, 15:42:00,VALID,914.559,VALID,0,VALID,79.2057,VALID,239.667,VALID,24.7633,VALID,232,VALID,0.87035,
2006-08-14, 15:43:00,VALID,914.535,VALID,0,VALID,79.6139,VALID,286.45,VALID,24.7149,VALID,275,VALID,1.95803,
2006-08-14, 15:44:00,VALID,914.546,VALID,0,VALID,80.4201,VALID,277.908,VALID,24.7539,VALID,235,VALID,1.29256,
2006-08-14, 15:45:00,VALID,914.558,VALID,0,VALID,80.6897,VALID,286.45,VALID,24.7862,VALID,261,VALID,0.945126,
2006-08-14, 15:46:00,VALID,914.558,VALID,0,VALID,79.9203,VALID,441.586,VALID,24.9061,VALID,234,VALID,0.682594,
2006-08-14, 15:47:00,VALID,914.554,VALID,0,VALID,79.6024,VALID,517.779,VALID,24.9904,VALID,276,VALID,1.56138,
2006-08-14, 15:48:00,VALID,914.512,VALID,0,VALID,79.0086,VALID,568.365,VALID,25.202,VALID,264,VALID,1.61386,
2006-08-14, 15:49:00,VALID,914.495,VALID,0,VALID,79.0607,VALID,517.066,VALID,25.2279,VALID,257,VALID,2.16086,
2006-08-14, 15:50:00,VALID,914.479,VALID,0,VALID,78.4237,VALID,395.297,VALID,25.2767,VALID,264,VALID,1.82794,
2006-08-14, 15:51:00,VALID,914.482,VALID,0,VALID,78.9806,VALID,254.118,VALID,25.4511,VALID,258,VALID,1.52569,
2006-08-14, 15:52:00,VALID,914.482,VALID,0,VALID,76.927,VALID,312.43,VALID,25.4925,VALID,98,VALID,0.400073,
2006-08-14, 15:53:00,VALID,914.473,VALID,0,VALID,76.604,VALID,428.987,VALID,25.612,VALID,84,VALID,0.282452,
2006-08-14, 15:54:00,VALID,914.464,VALID,0,VALID,75.9224,VALID,360.231,VALID,25.6127,VALID,103,VALID,0.699751,
2006-08-14, 15:55:00,VALID,914.449,VALID,0,VALID,76.955,VALID,320.615,VALID,25.5804,VALID,271,VALID,0.877096,
2006-08-14, 15:56:00,VALID,914.45,VALID,0,VALID,76.6968,VALID,223.128,VALID,25.5988,VALID,324,VALID,0.715732,
2006-08-14, 15:57:00,VALID,914.441,VALID,0,VALID,76.9155,VALID,209.526,VALID,25.57,VALID,272,VALID,0.825452,
2006-08-14, 15:58:00,VALID,914.447,VALID,0,VALID,77.1928,VALID,197.317,VALID,25.4447,VALID,173,VALID,0.603423,
2006-08-14, 15:59:00,VALID,914.442,VALID,0,VALID,78.4453,VALID,173.187,VALID,25.299,VALID,272,VALID,1.22456,
2006-08-14, 16:00:00,VALID,914.442,VALID,0,VALID,78.7556,VALID,171.625,VALID,25.299,VALID,277,VALID,1.53373,
2006-08-14, 16:01:00,VALID,914.436,VALID,0,VALID,78.8675,VALID,171.642,VALID,25.1985,VALID,258,VALID,1.53639,
2006-08-14, 16:02:00,VALID,914.431,VALID,0,VALID,79.5707,VALID,176.855,VALID,25.0043,VALID,223,VALID,1.45756,
2006-08-14, 16:03:00,VALID,914.453,VALID,0,VALID,79.9267,VALID,179.148,VALID,24.7301,VALID,196,VALID,0.627544,
2006-08-14, 16:04:00,VALID,914.442,VALID,0,VALID,80.6808,VALID,180.557,VALID,24.6529,VALID,216,VALID,1.64901,
2006-08-14, 16:05:00,VALID,914.448,VALID,0,VALID,81.6307,VALID,177.653,VALID,24.5237,VALID,247,VALID,0.959441,
2006-08-14, 16:06:00,VALID,914.435,VALID,0,VALID,81.7273,VALID,180.829,VALID,24.3822,VALID,155,VALID,0.478659,
2006-08-14, 16:07:00,VALID,914.397,VALID,0,VALID,82.1024,VALID,190.746,VALID,24.3463,VALID,249,VALID,0.971227,
2006-08-14, 16:08:00,VALID,914.368,VALID,0,VALID,82.8654,VALID,202.581,VALID,24.3657,VALID,254,VALID,1.33523,
2006-08-14, 16:09:00,VALID,914.362,VALID,0,VALID,82.9226,VALID,219.8,VALID,24.3399,VALID,265,VALID,1.69851,
2006-08-14, 16:10:00,VALID,914.386,VALID,0,VALID,83.4287,VALID,234.59,VALID,24.2988,VALID,249,VALID,1.02544,
2006-08-14, 16:11:00,VALID,914.398,VALID,0,VALID,82.8438,VALID,233.673,VALID,24.3088,VALID,326,VALID,0.926781,
2006-08-14, 16:12:00,VALID,914.414,VALID,0,VALID,83.4758,VALID,208.898,VALID,24.3082,VALID,270,VALID,1.1875,
2006-08-14, 16:13:00,VALID,914.442,VALID,0,VALID,83.8916,VALID,211.598,VALID,24.3408,VALID,272,VALID,1.47511,
2006-08-14, 16:14:00,VALID,914.451,VALID,0,VALID,83.2825,VALID,205.994,VALID,24.4412,VALID,265,VALID,0.950521,
2006-08-14, 16:15:00,VALID,914.453,VALID,0,VALID,82.6797,VALID,196.366,VALID,24.4829,VALID,267,VALID,1.35324,
2006-08-14, 16:16:00,VALID,914.42,VALID,0,VALID,82.0376,VALID,266.124,VALID,24.5026,VALID,270,VALID,1.87135,
2006-08-14, 16:17:00,VALID,914.429,VALID,0,VALID,82.208,VALID,219.273,VALID,24.4964,VALID,264,VALID,1.77809,
2006-08-14, 16:18:00,VALID,914.442,VALID,0,VALID,81.9168,VALID,214.349,VALID,24.4671,VALID,267,VALID,1.55562,
2006-08-14, 16:19:00,VALID,914.448,VALID,0,VALID,82.5894,VALID,213.449,VALID,24.4122,VALID,275,VALID,1.82679,
2006-08-14, 16:20:00,VALID,914.471,VALID,0,VALID,82.7738,VALID,206.453,VALID,24.4086,VALID,284,VALID,1.77813,
2006-08-14, 16:21:00,VALID,914.481,VALID,0,VALID,82.2105,VALID,206.793,VALID,24.3702,VALID,247,VALID,1.46348,
2006-08-14, 16:22:00,VALID,914.495,VALID,0,VALID,82.7382,VALID,203.957,VALID,24.2668,VALID,285,VALID,1.16063,
2006-08-14, 16:23:00,VALID,914.495,VALID,0,VALID,83.2583,VALID,200.73,VALID,24.3056,VALID,273,VALID,1.89375,
2006-08-14, 16:24:00,VALID,914.486,VALID,0,VALID,83.3054,VALID,215.045,VALID,24.332,VALID,273,VALID,1.92702,
2006-08-14, 16:25:00,VALID,914.494,VALID,0,VALID,82.9213,VALID,207.336,VALID,24.2545,VALID,279,VALID,2.01811,
2006-08-14, 16:26:00,VALID,914.498,VALID,0,VALID,83.2214,VALID,209.9,VALID,24.2057,VALID,270,VALID,2.58501,
2006-08-14, 16:27:00,VALID,914.515,VALID,0,VALID,83.2685,VALID,219.392,VALID,24.1285,VALID,273,VALID,2.24073,
2006-08-14, 16:28:00,VALID,914.523,VALID,0,VALID,83.7339,VALID,218.662,VALID,24.0662,VALID,265,VALID,1.74085,
2006-08-14, 16:29:00,VALID,914.537,VALID,0,VALID,83.7784,VALID,210.443,VALID,24.0933,VALID,282,VALID,1.93657,
2006-08-14, 16:30:00,VALID,914.554,VALID,0,VALID,83.065,VALID,208.355,VALID,24.1159,VALID,243,VALID,1.55971,
2006-08-14, 16:31:00,VALID,914.566,VALID,0,VALID,82.5577,VALID,210.545,VALID,24.103,VALID,282,VALID,1.95685,
2006-08-14, 16:32:00,VALID,914.586,VALID,0,VALID,82.5004,VALID,217.1,VALID,24.1004,VALID,261,VALID,1.39844,
2006-08-14, 16:33:00,VALID,914.591,VALID,0,VALID,83.2825,VALID,206.606,VALID,24.0871,VALID,282,VALID,1.8045,
2006-08-14, 16:34:00,VALID,914.573,VALID,0,VALID,83.0587,VALID,190.168,VALID,24.0478,VALID,265,VALID,1.78609,
2006-08-14, 16:35:00,VALID,914.582,VALID,0,VALID,83.4669,VALID,190.865,VALID,24.0642,VALID,280,VALID,1.88605,
2006-08-14, 16:36:00,VALID,914.584,VALID,0,VALID,82.9404,VALID,189.608,VALID,24.1356,VALID,275,VALID,2.2623,
2006-08-14, 16:37:00,VALID,914.598,VALID,0,VALID,82.5475,VALID,187.893,VALID,24.1417,VALID,277,VALID,2.16673,
2006-08-14, 16:38:00,VALID,914.611,VALID,0,VALID,82.3974,VALID,185.176,VALID,24.0933,VALID,278,VALID,2.17378,
2006-08-14, 16:39:00,VALID,914.618,VALID,0,VALID,83.0358,VALID,189.625,VALID,24.0713,VALID,283,VALID,2.08168,
2006-08-14, 16:40:00,VALID,914.612,VALID,0,VALID,82.9658,VALID,194.159,VALID,24.0813,VALID,270,VALID,1.57366,
2006-08-14, 16:41:00,VALID,914.59,VALID,0,VALID,82.6429,VALID,186.433,VALID,24.0481,VALID,284,VALID,1.13374,
2006-08-14, 16:42:00,VALID,914.587,VALID,0,VALID,82.9468,VALID,192.817,VALID,23.9036,VALID,266,VALID,1.51732,
2006-08-14, 16:43:00,VALID,914.592,VALID,0,VALID,84.5973,VALID,201.834,VALID,23.8872,VALID,264,VALID,1.25586,
2006-08-14, 16:44:00,VALID,914.599,VALID,0,VALID,84.2171,VALID,206.3,VALID,23.9841,VALID,274,VALID,1.63976,
2006-08-14, 16:45:00,VALID,914.589,VALID,0,VALID,82.9747,VALID,204.127,VALID,24.0977,VALID,260,VALID,1.01563,
2006-08-14, 16:46:00,VALID,914.583,VALID,0,VALID,83.1846,VALID,203.566,VALID,24.1074,VALID,267,VALID,1.17007,
2006-08-14, 16:47:00,VALID,914.574,VALID,0,VALID,82.9112,VALID,202.632,VALID,24.2205,VALID,218,VALID,0.58194,
2006-08-14, 16:48:00,VALID,914.583,VALID,0,VALID,82.1698,VALID,213.568,VALID,24.4078,VALID,139,VALID,0.256904,
2006-08-14, 16:49:00,VALID,914.599,VALID,0,VALID,80.9516,VALID,206.47,VALID,24.5687,VALID,100,VALID,0.297805,
2006-08-14, 16:50:00,VALID,914.601,VALID,0,VALID,80.2726,VALID,206.266,VALID,24.6043,VALID,176,VALID,0.835193,
2006-08-14, 16:51:00,VALID,914.605,VALID,0,VALID,80.8817,VALID,185.023,VALID,24.5887,VALID,282,VALID,0.660156,
2006-08-14, 16:52:00,VALID,914.608,VALID,0,VALID,80.9694,VALID,164.714,VALID,24.5406,VALID,281,VALID,0.745486,
2006-08-14, 16:53:00,VALID,914.6,VALID,0,VALID,81.0686,VALID,163.322,VALID,24.4948,VALID,269,VALID,0.917225,
2006-08-14, 16:54:00,VALID,914.613,VALID,0,VALID,81.9066,VALID,173.595,VALID,24.3494,VALID,266,VALID,1.55278,
2006-08-14, 16:55:00,VALID,914.641,VALID,0,VALID,82.1329,VALID,185.991,VALID,24.2463,VALID,236,VALID,0.510476,
2006-08-14, 16:56:00,VALID,914.648,VALID,0,VALID,82.3974,VALID,185.651,VALID,24.3009,VALID,281,VALID,0.890625,
2006-08-14, 16:57:00,VALID,914.67,VALID,0,VALID,82.1062,VALID,204.687,VALID,24.4149,VALID,271,VALID,0.990663,
2006-08-14, 16:58:00,VALID,914.672,VALID,0,VALID,82.0274,VALID,217.304,VALID,24.444,VALID,276,VALID,0.847266,
2006-08-14, 16:59:00,VALID,914.66,VALID,0,VALID,81.4628,VALID,205.111,VALID,24.5154,VALID,278,VALID,1.63132,
2006-08-14, 17:00:00,VALID,914.637,VALID,0,VALID,81.562,VALID,190.185,VALID,24.5829,VALID,264,VALID,1.48493,
2006-08-14, 17:01:00,VALID,914.642,VALID,0,VALID,81.1525,VALID,172.135,VALID,24.6184,VALID,280,VALID,1.17607,
2006-08-14, 17:02:00,VALID,914.683,VALID,0,VALID,81.2237,VALID,165.682,VALID,24.6055,VALID,237,VALID,0.917878,
2006-08-14, 17:03:00,VALID,914.704,VALID,0,VALID,80.7431,VALID,140.635,VALID,24.5538,VALID,238,VALID,0.805233,
2006-08-14, 17:04:00,VALID,914.717,VALID,0,VALID,80.6324,VALID,130.939,VALID,24.4886,VALID,281,VALID,0.864879,
2006-08-14, 17:05:00,VALID,914.73,VALID,0,VALID,81.431,VALID,124.045,VALID,24.4208,VALID,275,VALID,0.524479,
2006-08-14, 17:06:00,VALID,914.714,VALID,0,VALID,82.3466,VALID,118.373,VALID,24.3626,VALID,276,VALID,1.25712,
2006-08-14, 17:07:00,VALID,914.685,VALID,0,VALID,82.7484,VALID,113.5,VALID,24.2592,VALID,264,VALID,1.26875,
2006-08-14, 17:08:00,VALID,914.683,VALID,0,VALID,82.8565,VALID,108.015,VALID,24.1374,VALID,256,VALID,0.72311,
2006-08-14, 17:09:00,VALID,914.66,VALID,0,VALID,83.0091,VALID,105.23,VALID,24.0699,VALID,267,VALID,1.03194,
2006-08-14, 17:10:00,VALID,914.659,VALID,0,VALID,82.9951,VALID,100.849,VALID,24.0425,VALID,275,VALID,1.34219,
2006-08-14, 17:11:00,VALID,914.655,VALID,0,VALID,83.0332,VALID,93.8531,VALID,24.0525,VALID,282,VALID,1.00057,
2006-08-14, 17:12:00,VALID,914.676,VALID,0,VALID,83.3232,VALID,88.5041,VALID,24.0328,VALID,275,VALID,1.47441,
2006-08-14, 17:13:00,VALID,914.669,VALID,0,VALID,83.3282,VALID,91.7644,VALID,23.9979,VALID,267,VALID,1.6526,
2006-08-14, 17:14:00,VALID,914.668,VALID,0,VALID,83.6665,VALID,99.6775,VALID,23.9565,VALID,276,VALID,1.25877,
2006-08-14, 17:15:00,VALID,914.679,VALID,0,VALID,83.8916,VALID,102.938,VALID,23.8784,VALID,269,VALID,1.05664,
2006-08-14, 17:16:00,VALID,914.676,VALID,0,VALID,84.2006,VALID,90.7116,VALID,23.849,VALID,281,VALID,1.13423,
2006-08-14, 17:17:00,VALID,914.702,VALID,0,VALID,84.1866,VALID,81.491,VALID,23.8335,VALID,255,VALID,0.964343,
2006-08-14, 17:18:00,VALID,914.698,VALID,0,VALID,84.2972,VALID,75.8024,VALID,23.7304,VALID,261,VALID,0.829564,
2006-08-14, 17:19:00,VALID,914.725,VALID,0,VALID,85.1136,VALID,71.6931,VALID,23.6335,VALID,270,VALID,1.04258,
2006-08-14, 17:20:00,VALID,914.721,VALID,0,VALID,85.2954,VALID,69.6214,VALID,23.5819,VALID,247,VALID,0.879179,
2006-08-14, 17:21:00,VALID,914.731,VALID,0,VALID,85.2446,VALID,69.0271,VALID,23.492,VALID,292,VALID,0.603379,
2006-08-14, 17:22:00,VALID,914.755,VALID,0,VALID,85.7278,VALID,68.8063,VALID,23.4207,VALID,283,VALID,0.912202,
2006-08-14, 17:23:00,VALID,914.755,VALID,0,VALID,86.0762,VALID,70.4535,VALID,23.4177,VALID,271,VALID,1.20028,
2006-08-14, 17:24:00,VALID,914.77,VALID,0,VALID,86.431,VALID,71.1667,VALID,23.421,VALID,281,VALID,1.13914,
2006-08-14, 17:25:00,VALID,914.774,VALID,0,VALID,86.3445,VALID,73.1704,VALID,23.4403,VALID,285,VALID,0.364281,
2006-08-14, 17:26:00,VALID,914.783,VALID,0,VALID,85.9198,VALID,75.0043,VALID,23.4571,VALID,279,VALID,0.298781,
2006-08-14, 17:27:00,VALID,914.804,VALID,0,VALID,85.7328,VALID,76.3628,VALID,23.3722,VALID,163,VALID,0.407948,
2006-08-14, 17:28:00,VALID,914.824,VALID,0,VALID,86.2161,VALID,79.6061,VALID,23.3073,VALID,282,VALID,0.842416,
2006-08-14, 17:29:00,VALID,914.833,VALID,0,VALID,86.7209,VALID,97.0285,VALID,23.2915,VALID,283,VALID,0.579883,
2006-08-14, 17:30:00,VALID,914.84,VALID,0,VALID,86.8391,VALID,118.696,VALID,23.3305,VALID,283,VALID,0.518229,
2006-08-14, 17:31:00,VALID,914.859,VALID,0,VALID,86.6077,VALID,162.133,VALID,23.4339,VALID,282,VALID,0.507422,
2006-08-14, 17:32:00,VALID,914.857,VALID,0,VALID,85.9948,VALID,164.612,VALID,23.5725,VALID,278,VALID,0.370508,
2006-08-14, 17:33:00,VALID,914.855,VALID,0,VALID,85.359,VALID,134.556,VALID,23.7149,VALID,273,VALID,0.297238,
2006-08-14, 17:34:00,VALID,914.852,VALID,0,VALID,85.0958,VALID,168.806,VALID,23.835,VALID,272,VALID,0.366425,
2006-08-14, 17:35:00,VALID,914.835,VALID,0,VALID,84.7791,VALID,168.45,VALID,23.993,VALID,282,VALID,1.02023,
2006-08-14, 17:36:00,VALID,914.824,VALID,0,VALID,84.3392,VALID,164.68,VALID,24.0305,VALID,258,VALID,0.978472,
2006-08-14, 17:37:00,VALID,914.826,VALID,0,VALID,84.0976,VALID,160.316,VALID,24.0766,VALID,280,VALID,1.11607,
2006-08-14, 17:38:00,VALID,914.836,VALID,0,VALID,83.9386,VALID,150.009,VALID,24.2185,VALID,276,VALID,1.23384,
2006-08-14, 17:39:00,VALID,914.843,VALID,0,VALID,83.1502,VALID,131.567,VALID,24.3351,VALID,270,VALID,0.695845,
2006-08-14, 17:40:00,VALID,914.86,VALID,0,VALID,82.4775,VALID,132.026,VALID,24.3506,VALID,277,VALID,1.0974,
2006-08-14, 17:41:00,VALID,914.87,VALID,0,VALID,82.7484,VALID,125.336,VALID,24.3961,VALID,269,VALID,0.55923,
2006-08-14, 17:42:00,VALID,914.891,VALID,0,VALID,82.5729,VALID,111.19,VALID,24.4155,VALID,272,VALID,0.414244,
2006-08-14, 17:43:00,VALID,914.9,VALID,0,VALID,82.723,VALID,99.9661,VALID,24.3703,VALID,255,VALID,0.432049,
2006-08-14, 17:44:00,VALID,914.916,VALID,0,VALID,82.8361,VALID,93.1908,VALID,24.296,VALID,267,VALID,0.937322,
2006-08-14, 17:45:00,VALID,914.924,VALID,0,VALID,83.0752,VALID,85.4985,VALID,24.2149,VALID,297,VALID,0.449405,
2006-08-14, 17:46:00,VALID,914.935,VALID,0,VALID,83.1985,VALID,75.2081,VALID,24.1868,VALID,322,VALID,0.424253,
2006-08-14, 17:47:00,VALID,914.949,VALID,0,VALID,83.243,VALID,62.3196,VALID,24.1183,VALID,265,VALID,0.500888,
2006-08-14, 17:48:00,VALID,914.99,VALID,0,VALID,83.4503,VALID,58.7876,VALID,24.012,VALID,188,VALID,0.273438,
2006-08-14, 17:49:00,VALID,915.022,VALID,0,VALID,84.301,VALID,53.2179,VALID,23.8758,VALID,282,VALID,0.90143,
2006-08-14, 17:50:00,VALID,915.032,VALID,0,VALID,84.9508,VALID,46.086,VALID,23.7436,VALID,277,VALID,0.286086,
2006-08-14, 17:51:00,VALID,915.021,VALID,0,VALID,85.2318,VALID,41.3653,VALID,23.6564,VALID,277,VALID,0.232465,
2006-08-14, 17:52:00,VALID,914.989,VALID,0,VALID,85.5497,VALID,39.1238,VALID,23.5951,VALID,270,VALID,0.580208,
2006-08-14, 17:53:00,VALID,914.983,VALID,0,VALID,86.0698,VALID,36.288,VALID,23.5208,VALID,266,VALID,1.05415,
2006-08-14, 17:54:00,VALID,914.984,VALID,0,VALID,86.6306,VALID,34.6069,VALID,23.3881,VALID,272,VALID,0.960582,
2006-08-14, 17:55:00,VALID,914.985,VALID,0,VALID,87.2524,VALID,32.1787,VALID,23.3015,VALID,267,VALID,1.00818,
2006-08-14, 17:56:00,VALID,914.996,VALID,0,VALID,87.6975,VALID,30.6164,VALID,23.2014,VALID,277,VALID,1.22529,
2006-08-14, 17:57:00,VALID,915.014,VALID,0,VALID,87.859,VALID,31.9919,VALID,23.1236,VALID,282,VALID,1.47768,
2006-08-14, 17:58:00,VALID,915.031,VALID,0,VALID,88.2341,VALID,32.6711,VALID,23.0496,VALID,284,VALID,1.23307,
2006-08-14, 17:59:00,VALID,915.053,VALID,0,VALID,88.6385,VALID,32.0089,VALID,22.9944,VALID,263,VALID,0.781064,
2006-08-14, 18:00:00,VALID,915.063,VALID,0,VALID,88.7707,VALID,27.7806,VALID,22.9239,VALID,272,VALID,1.06364,
2006-08-14, 18:01:00,VALID,915.042,VALID,0,VALID,89.0288,VALID,23.6034,VALID,22.8623,VALID,259,VALID,0.902439,
2006-08-14, 18:02:00,VALID,915.013,VALID,0,VALID,89.2527,VALID,19.2732,VALID,22.8112,VALID,275,VALID,0.952415,
2006-08-14, 18:03:00,VALID,915.003,VALID,0,VALID,89.2361,VALID,15.7922,VALID,22.7305,VALID,258,VALID,0.461124,
2006-08-14, 18:04:00,VALID,915.021,VALID,0,VALID,89.5337,VALID,14.145,VALID,22.6398,VALID,259,VALID,0.736662,
2006-08-14, 18:05:00,VALID,915.053,VALID,0,VALID,90.1301,VALID,12.6507,VALID,22.576,VALID,262,VALID,0.854226,
2006-08-14, 18:06:00,VALID,915.076,VALID,0,VALID,90.5586,VALID,11.9545,VALID,22.4845,VALID,272,VALID,0.83754,
2006-08-14, 18:07:00,VALID,915.124,VALID,0,VALID,90.8383,VALID,11.8526,VALID,22.4598,VALID,276,VALID,1.0316,
2006-08-14, 18:08:00,VALID,915.138,VALID,0,VALID,90.8841,VALID,11.2583,VALID,22.3885,VALID,276,VALID,1.26349,
2006-08-14, 18:09:00,VALID,915.163,VALID,0,VALID,91.1918,VALID,10.1376,VALID,22.3476,VALID,277,VALID,1.1614,
2006-08-14, 18:10:00,VALID,915.151,VALID,0,VALID,91.272,VALID,9.44134,VALID,22.325,VALID,277,VALID,1.2338,
2006-08-14, 18:11:00,VALID,915.143,VALID,0,VALID,91.3165,VALID,8.74513,VALID,22.2892,VALID,275,VALID,1.47618,
2006-08-14, 18:12:00,VALID,915.145,VALID,0,VALID,91.244,VALID,8.01495,VALID,22.257,VALID,274,VALID,1.10879,
2006-08-14, 18:13:00,VALID,915.172,VALID,0,VALID,91.5059,VALID,7.3527,VALID,22.2026,VALID,272,VALID,1.37282,
2006-08-14, 18:14:00,VALID,915.181,VALID,0,VALID,91.7781,VALID,6.24895,VALID,22.1507,VALID,271,VALID,1.141,
2006-08-14, 18:15:00,VALID,915.213,VALID,0,VALID,91.9993,VALID,5.33198,VALID,22.1017,VALID,279,VALID,0.929155,
2006-08-14, 18:16:00,VALID,915.221,VALID,0,VALID,92.1239,VALID,4.58482,VALID,22.0726,VALID,275,VALID,1.05888,
2006-08-14, 18:17:00,VALID,915.254,VALID,0,VALID,92.2943,VALID,3.82069,VALID,22.0474,VALID,282,VALID,0.583274,
2006-08-14, 18:18:00,VALID,915.279,VALID,0,VALID,92.4889,VALID,3.03957,VALID,22.0051,VALID,282,VALID,0.447545,
2006-08-14, 18:19:00,VALID,915.307,VALID,0,VALID,92.9034,VALID,2.3943,VALID,21.9766,VALID,283,VALID,0.24673,
2006-08-14, 18:20:00,VALID,915.352,VALID,0,VALID,93.056,VALID,2.08864,VALID,21.9863,VALID,196,VALID,0.34747,
2006-08-14, 18:21:00,VALID,915.365,VALID,0,VALID,93.0484,VALID,2.25845,VALID,21.9699,VALID,86,VALID,0.308498,